Time,TemperatureF,DewpointF,PressureIn,WindDirection,WindDirectionDegrees,WindSpeedMPH,WindSpeedGustMPH,Humidity,HourlyPrecipIn,Conditions,Clouds,dailyrainin,SoftwareType,DateUTC
2013-02-12 00:01:00,45.0,32.7,29.97,WNW,292,0.0,0.0,62,0.00,,---,0.00,VWS V14.00,2013-02-12 08:01:00,
2013-02-12 00:06:00,44.8,32.6,29.97,NNW,338,0.0,0.0,62,0.00,,---,0.00,VWS V14.00,2013-02-12 08:06:00,
2013-02-12 00:11:00,44.8,32.6,29.97,NNW,338,0.0,0.0,62,0.00,,---,0.00,VWS V14.00,2013-02-12 08:11:00,
2013-02-12 00:16:00,44.8,32.6,29.97,NNW,338,0.0,0.0,62,0.00,,---,0.00,VWS V14.00,2013-02-12 08:16:00,
2013-02-12 00:21:00,44.4,32.2,29.97,NNW,338,0.0,0.0,62,0.00,,---,0.00,VWS V14.00,2013-02-12 08:21:00,
2013-02-12 00:26:00,44.4,32.2,29.97,WNW,292,1.1,1.1,62,0.00,,---,0.00,VWS V14.00,2013-02-12 08:26:00,
2013-02-12 00:32:00,44.2,32.1,29.97,WNW,292,1.1,1.1,62,0.00,,---,0.00,VWS V14.00,2013-02-12 08:32:00,
2013-02-12 00:38:00,44.2,32.1,29.97,SW,225,0.0,1.1,62,0.00,,---,0.00,VWS V14.00,2013-02-12 08:38:00,
2013-02-12 00:44:00,44.2,32.1,29.97,WNW,292,0.0,0.0,62,0.00,,---,0.00,VWS V14.00,2013-02-12 08:44:00,
2013-02-12 00:49:00,43.7,32.0,29.97,WNW,292,0.0,0.0,63,0.00,,---,0.00,VWS V14.00,2013-02-12 08:49:00,
2013-02-12 00:55:00,43.7,32.0,29.97,WNW,292,0.0,0.0,63,0.00,,---,0.00,VWS V14.00,2013-02-12 08:55:00,
2013-02-12 01:00:00,43.7,32.0,29.97,NW,315,0.0,0.0,63,0.00,,---,0.00,VWS V14.00,2013-02-12 09:00:00,
2013-02-12 01:05:00,43.7,32.0,29.97,NNW,338,1.6,2.0,63,0.00,,---,0.00,VWS V14.00,2013-02-12 09:05:00,
2013-02-12 01:10:00,43.7,32.0,29.97,WNW,292,2.0,2.5,63,0.00,,---,0.00,VWS V14.00,2013-02-12 09:10:00,
2013-02-12 01:15:00,43.7,32.0,29.97,WSW,248,0.0,0.0,63,0.00,,---,0.00,VWS V14.00,2013-02-12 09:15:00,
2013-02-12 01:20:00,43.2,31.8,29.97,SSW,202,0.0,0.0,64,0.00,,---,0.00,VWS V14.00,2013-02-12 09:20:00,
2013-02-12 01:25:00,43.3,32.8,29.97,South,180,2.9,2.9,66,0.00,,---,0.00,VWS V14.00,2013-02-12 09:25:00,
2013-02-12 01:30:00,43.5,33.3,29.97,WSW,248,0.0,0.0,67,0.00,,---,0.00,VWS V14.00,2013-02-12 09:30:00,
2013-02-12 01:35:00,43.5,33.3,29.97,NW,315,0.0,0.0,67,0.00,,---,0.00,VWS V14.00,2013-02-12 09:35:00,
2013-02-12 01:40:00,43.5,33.3,29.97,NW,315,0.0,0.0,67,0.00,,---,0.00,VWS V14.00,2013-02-12 09:40:00,
2013-02-12 01:45:00,43.5,33.3,29.97,NW,315,0.0,0.0,67,0.00,,---,0.00,VWS V14.00,2013-02-12 09:45:00,
2013-02-12 01:50:00,43.2,33.0,29.97,NW,315,0.0,0.0,67,0.00,,---,0.00,VWS V14.00,2013-02-12 09:50:00,
2013-02-12 01:55:00,43.2,33.3,29.97,NW,315,0.0,0.0,68,0.00,,---,0.00,VWS V14.00,2013-02-12 09:55:00,
2013-02-12 02:00:00,43.2,33.3,29.97,SW,225,0.0,0.0,68,0.00,,---,0.00,VWS V14.00,2013-02-12 10:00:00,
2013-02-12 02:06:00,43.2,33.3,29.97,WSW,248,0.0,0.0,68,0.00,,---,0.00,VWS V14.00,2013-02-12 10:06:00,
2013-02-12 02:11:00,42.8,33.0,29.97,SW,225,0.0,1.1,68,0.00,,---,0.00,VWS V14.00,2013-02-12 10:11:00,
2013-02-12 02:16:00,42.8,33.3,29.97,WSW,248,0.0,0.0,69,0.00,,---,0.00,VWS V14.00,2013-02-12 10:16:00,
2013-02-12 02:21:00,42.8,33.3,29.97,NW,315,0.0,1.6,69,0.00,,---,0.00,VWS V14.00,2013-02-12 10:21:00,
2013-02-12 02:26:00,42.8,33.3,29.97,NW,315,0.0,0.0,69,0.00,,---,0.00,VWS V14.00,2013-02-12 10:26:00,
2013-02-12 02:31:00,42.8,33.3,29.97,NW,315,0.0,0.0,69,0.00,,---,0.00,VWS V14.00,2013-02-12 10:31:00,
2013-02-12 02:36:00,42.8,33.3,29.97,WSW,248,0.0,0.0,69,0.00,,---,0.00,VWS V14.00,2013-02-12 10:36:00,
2013-02-12 02:41:00,42.6,33.5,29.97,SW,225,0.0,0.0,70,0.00,,---,0.00,VWS V14.00,2013-02-12 10:41:00,
2013-02-12 02:46:00,42.6,33.5,29.97,NW,315,0.0,0.0,70,0.00,,---,0.00,VWS V14.00,2013-02-12 10:46:00,
2013-02-12 02:51:00,42.8,33.7,29.94,NW,315,0.0,0.0,70,0.00,,---,0.00,VWS V14.00,2013-02-12 10:51:00,
2013-02-12 02:57:00,42.8,33.7,29.94,NW,315,0.0,0.0,70,0.00,,---,0.00,VWS V14.00,2013-02-12 10:57:00,
2013-02-12 03:02:00,42.6,33.9,29.94,NW,315,0.0,0.0,71,0.00,,---,0.00,VWS V14.00,2013-02-12 11:02:00,
2013-02-12 03:08:00,42.6,33.9,29.94,NNW,338,0.0,0.0,71,0.00,,---,0.00,VWS V14.00,2013-02-12 11:08:00,
2013-02-12 03:13:00,42.4,33.7,29.94,NW,315,0.0,0.0,71,0.00,,---,0.00,VWS V14.00,2013-02-12 11:13:00,
2013-02-12 03:18:00,42.4,34.1,29.94,NW,315,0.0,0.0,72,0.00,,---,0.00,VWS V14.00,2013-02-12 11:18:00,
2013-02-12 03:23:00,42.4,34.1,29.94,NNW,338,0.0,0.0,72,0.00,,---,0.00,VWS V14.00,2013-02-12 11:23:00,
2013-02-12 03:29:00,42.4,34.1,29.94,NNW,338,0.0,0.0,72,0.00,,---,0.00,VWS V14.00,2013-02-12 11:29:00,
2013-02-12 03:34:00,42.4,34.1,29.94,WNW,292,1.6,1.6,72,0.00,,---,0.00,VWS V14.00,2013-02-12 11:34:00,
2013-02-12 03:39:00,42.3,34.2,29.94,WNW,292,0.0,0.0,73,0.00,,---,0.00,VWS V14.00,2013-02-12 11:39:00,
2013-02-12 03:44:00,42.3,34.2,29.94,WNW,292,0.0,0.0,73,0.00,,---,0.00,VWS V14.00,2013-02-12 11:44:00,
2013-02-12 03:49:00,42.3,34.2,29.94,NW,315,0.0,0.0,73,0.00,,---,0.00,VWS V14.00,2013-02-12 11:49:00,
2013-02-12 03:55:00,42.4,34.8,29.94,NW,315,0.0,0.0,74,0.00,,---,0.00,VWS V14.00,2013-02-12 11:55:00,
2013-02-12 04:00:00,42.3,34.6,29.94,NW,315,0.0,0.0,74,0.00,,---,0.00,VWS V14.00,2013-02-12 12:00:00,
2013-02-12 04:05:00,42.3,34.6,29.94,NW,315,0.0,0.0,74,0.00,,---,0.00,VWS V14.00,2013-02-12 12:05:00,
2013-02-12 04:10:00,42.3,34.6,29.94,NW,315,0.0,0.0,74,0.00,,---,0.00,VWS V14.00,2013-02-12 12:10:00,
2013-02-12 04:16:00,42.3,34.6,29.94,NW,315,0.0,0.0,74,0.00,,---,0.00,VWS V14.00,2013-02-12 12:16:00,
2013-02-12 04:22:00,42.3,34.6,29.94,NW,315,0.0,0.0,74,0.00,,---,0.00,VWS V14.00,2013-02-12 12:22:00,
2013-02-12 04:27:00,42.1,34.7,29.94,NW,315,0.0,0.0,75,0.00,,---,0.00,VWS V14.00,2013-02-12 12:27:00,
2013-02-12 04:32:00,42.1,34.7,29.94,NW,315,0.0,0.0,75,0.00,,---,0.00,VWS V14.00,2013-02-12 12:32:00,
2013-02-12 04:38:00,41.9,34.6,29.94,NW,315,0.0,0.0,75,0.00,,---,0.00,VWS V14.00,2013-02-12 12:38:00,
2013-02-12 04:43:00,41.9,34.6,29.94,NW,315,0.0,0.0,75,0.00,,---,0.00,VWS V14.00,2013-02-12 12:43:00,
2013-02-12 04:48:00,41.9,34.6,29.94,WSW,248,0.0,0.0,75,0.00,,---,0.00,VWS V14.00,2013-02-12 12:48:00,
2013-02-12 04:54:00,41.9,34.9,29.94,WSW,248,0.0,0.0,76,0.00,,---,0.00,VWS V14.00,2013-02-12 12:54:00,
2013-02-12 04:59:00,41.9,34.9,29.94,WSW,248,0.0,0.0,76,0.00,,---,0.00,VWS V14.00,2013-02-12 12:59:00,
2013-02-12 05:04:00,41.9,34.9,29.94,NW,315,0.0,0.0,76,0.00,,---,0.00,VWS V14.00,2013-02-12 13:04:00,
2013-02-12 05:10:00,41.7,34.7,29.94,NNW,338,0.0,0.0,76,0.00,,---,0.00,VWS V14.00,2013-02-12 13:10:00,
2013-02-12 05:15:00,41.7,34.7,29.94,NW,315,0.0,0.0,76,0.00,,---,0.00,VWS V14.00,2013-02-12 13:15:00,
2013-02-12 05:20:00,41.5,34.5,29.94,NNW,338,0.0,0.0,76,0.00,,---,0.00,VWS V14.00,2013-02-12 13:20:00,
2013-02-12 05:26:00,41.5,34.5,29.94,NW,315,0.0,0.0,76,0.00,,---,0.00,VWS V14.00,2013-02-12 13:26:00,
2013-02-12 05:32:00,41.5,34.5,29.94,NW,315,0.0,0.0,76,0.00,,---,0.00,VWS V14.00,2013-02-12 13:32:00,
2013-02-12 05:37:00,41.5,34.5,29.94,NNW,338,0.0,0.0,76,0.00,,---,0.00,VWS V14.00,2013-02-12 13:37:00,
2013-02-12 05:42:00,41.4,34.7,29.94,NNW,338,0.0,0.0,77,0.00,,---,0.00,VWS V14.00,2013-02-12 13:42:00,
2013-02-12 05:47:00,41.4,34.7,29.94,NNW,338,1.1,1.1,77,0.00,,---,0.00,VWS V14.00,2013-02-12 13:47:00,
2013-02-12 05:53:00,41.4,34.7,29.94,NW,315,2.2,2.2,77,0.00,,---,0.00,VWS V14.00,2013-02-12 13:53:00,
2013-02-12 05:58:00,41.5,35.2,29.94,NW,315,2.0,2.9,78,0.00,,---,0.00,VWS V14.00,2013-02-12 13:58:00,
2013-02-12 06:04:00,41.9,35.5,29.97,NNW,338,0.0,0.0,78,0.00,,---,0.00,VWS V14.00,2013-02-12 14:04:00,
2013-02-12 06:09:00,41.9,35.5,29.97,NNW,338,1.3,2.2,78,0.00,,---,0.00,VWS V14.00,2013-02-12 14:09:00,
2013-02-12 06:14:00,41.9,35.5,29.97,NW,315,2.2,2.9,78,0.00,,---,0.00,VWS V14.00,2013-02-12 14:14:00,
2013-02-12 06:19:00,41.9,35.5,29.97,WNW,292,2.2,2.5,78,0.00,,---,0.00,VWS V14.00,2013-02-12 14:19:00,
2013-02-12 06:24:00,41.7,35.4,29.97,WNW,292,1.1,1.1,78,0.00,,---,0.00,VWS V14.00,2013-02-12 14:24:00,
2013-02-12 06:29:00,41.5,34.9,29.97,NW,315,2.0,2.5,77,0.00,,---,0.00,VWS V14.00,2013-02-12 14:29:00,
2013-02-12 06:35:00,41.2,34.5,30.00,NW,315,0.0,0.0,77,0.00,,---,0.00,VWS V14.00,2013-02-12 14:35:00,
2013-02-12 06:40:00,41.2,34.5,30.00,NW,315,0.0,0.0,77,0.00,,---,0.00,VWS V14.00,2013-02-12 14:40:00,
2013-02-12 06:45:00,41.2,34.5,30.00,NNW,338,0.0,0.0,77,0.00,,---,0.00,VWS V14.00,2013-02-12 14:45:00,
2013-02-12 06:50:00,41.2,34.8,30.00,WNW,292,1.3,2.0,78,0.00,,---,0.00,VWS V14.00,2013-02-12 14:50:00,
2013-02-12 06:55:00,41.0,34.3,30.00,NW,315,2.5,2.5,77,0.00,,---,0.00,VWS V14.00,2013-02-12 14:55:00,
2013-02-12 07:00:00,41.5,35.5,30.00,North,0,2.5,2.5,79,0.00,,---,0.00,VWS V14.00,2013-02-12 15:00:00,
2013-02-12 07:05:00,41.7,36.0,30.00,North,0,2.5,2.5,80,0.00,,---,0.00,VWS V14.00,2013-02-12 15:05:00,
2013-02-12 07:10:00,42.1,36.4,30.00,NNW,338,0.0,0.0,80,0.00,,---,0.00,VWS V14.00,2013-02-12 15:10:00,
2013-02-12 07:15:00,42.1,36.4,30.00,NNW,338,0.0,0.0,80,0.00,,---,0.00,VWS V14.00,2013-02-12 15:15:00,
2013-02-12 07:20:00,42.1,36.4,30.00,West,270,0.0,1.1,80,0.00,,---,0.00,VWS V14.00,2013-02-12 15:20:00,
2013-02-12 07:26:00,42.1,36.4,30.00,NW,315,0.9,3.4,80,0.00,,---,0.00,VWS V14.00,2013-02-12 15:26:00,
2013-02-12 07:31:00,41.9,36.2,30.00,NW,315,2.0,2.7,80,0.00,,---,0.00,VWS V14.00,2013-02-12 15:31:00,
2013-02-12 07:36:00,42.3,36.5,30.00,NNW,338,2.0,2.7,80,0.00,,---,0.00,VWS V14.00,2013-02-12 15:36:00,
2013-02-12 07:41:00,42.3,36.5,30.00,NW,315,2.2,3.1,80,0.00,,---,0.00,VWS V14.00,2013-02-12 15:41:00,
2013-02-12 07:46:00,42.3,36.2,30.00,NW,315,2.2,2.2,79,0.00,,---,0.00,VWS V14.00,2013-02-12 15:46:00,
2013-02-12 07:51:00,42.3,36.5,30.03,NW,315,0.0,2.2,80,0.00,,---,0.00,VWS V14.00,2013-02-12 15:51:00,
2013-02-12 07:56:00,42.6,36.9,30.03,NNW,338,0.0,1.3,80,0.00,,---,0.00,VWS V14.00,2013-02-12 15:56:00,
2013-02-12 08:01:00,43.0,37.2,30.03,NNW,338,1.3,1.6,80,0.00,,---,0.00,VWS V14.00,2013-02-12 16:01:00,
2013-02-12 08:07:00,43.7,38.0,30.03,NNW,338,0.0,0.0,80,0.00,,---,0.00,VWS V14.00,2013-02-12 16:07:00,
2013-02-12 08:12:00,44.2,38.5,30.03,NNW,338,0.0,0.0,80,0.00,,---,0.00,VWS V14.00,2013-02-12 16:12:00,
2013-02-12 08:17:00,45.1,39.3,30.03,NNW,338,0.0,0.0,80,0.00,,---,0.00,VWS V14.00,2013-02-12 16:17:00,
2013-02-12 08:22:00,45.9,40.0,30.03,NNW,338,0.0,0.0,80,0.00,,---,0.00,VWS V14.00,2013-02-12 16:22:00,
2013-02-12 08:27:00,45.9,40.0,30.03,NW,315,1.6,2.0,80,0.00,,---,0.00,VWS V14.00,2013-02-12 16:27:00,
2013-02-12 08:33:00,48.0,41.8,30.03,NNW,338,0.0,1.1,79,0.00,,---,0.00,VWS V14.00,2013-02-12 16:33:00,
2013-02-12 08:38:00,49.6,43.1,30.03,NNE,22,2.2,2.2,78,0.00,,---,0.00,VWS V14.00,2013-02-12 16:38:00,
2013-02-12 08:43:00,50.7,43.4,30.03,ENE,68,1.3,2.0,76,0.00,,---,0.00,VWS V14.00,2013-02-12 16:43:00,
2013-02-12 08:48:00,51.3,43.3,30.03,NNE,22,0.0,0.0,74,0.00,,---,0.00,VWS V14.00,2013-02-12 16:48:00,
2013-02-12 08:53:00,51.3,42.9,30.03,NNE,22,1.3,1.3,73,0.00,,---,0.00,VWS V14.00,2013-02-12 16:53:00,
2013-02-12 08:59:00,51.3,42.9,30.03,WNW,292,4.0,4.9,73,0.00,,---,0.00,VWS V14.00,2013-02-12 16:59:00,
2013-02-12 09:05:00,51.4,42.7,30.03,NW,315,4.3,4.3,72,0.00,,---,0.00,VWS V14.00,2013-02-12 17:05:00,
2013-02-12 09:10:00,51.4,42.4,30.03,WNW,292,1.6,3.1,71,0.00,,---,0.00,VWS V14.00,2013-02-12 17:10:00,
2013-02-12 09:16:00,51.6,42.9,30.03,North,0,1.3,1.3,72,0.00,,---,0.00,VWS V14.00,2013-02-12 17:16:00,
2013-02-12 09:21:00,51.8,42.7,30.06,North,0,1.3,1.3,71,0.00,,---,0.00,VWS V14.00,2013-02-12 17:21:00,
2013-02-12 09:26:00,51.8,42.7,30.06,NNE,22,2.0,2.0,71,0.00,,---,0.00,VWS V14.00,2013-02-12 17:26:00,
2013-02-12 09:32:00,52.0,42.9,30.06,NNE,22,1.1,2.7,71,0.00,,---,0.00,VWS V14.00,2013-02-12 17:32:00,
2013-02-12 09:38:00,52.3,43.2,30.06,NW,315,0.0,0.0,71,0.00,,---,0.00,VWS V14.00,2013-02-12 17:38:00,
2013-02-12 09:44:00,52.5,43.4,30.06,NE,45,0.0,0.0,71,0.00,,---,0.00,VWS V14.00,2013-02-12 17:44:00,
2013-02-12 09:50:00,52.5,43.4,30.06,ENE,68,0.0,0.0,71,0.00,,---,0.00,VWS V14.00,2013-02-12 17:50:00,
2013-02-12 09:55:00,52.9,43.8,30.06,East,90,2.0,2.5,71,0.00,,---,0.00,VWS V14.00,2013-02-12 17:55:00,
2013-02-12 10:01:00,53.2,43.7,30.06,NNW,338,1.6,1.6,70,0.00,,---,0.00,VWS V14.00,2013-02-12 18:01:00,
2013-02-12 10:06:00,53.4,43.9,30.06,NNW,338,1.6,1.6,70,0.00,,---,0.00,VWS V14.00,2013-02-12 18:06:00,
2013-02-12 10:11:00,53.8,43.9,30.06,WNW,292,1.6,1.6,69,0.00,,---,0.00,VWS V14.00,2013-02-12 18:11:00,
2013-02-12 10:17:00,54.0,44.0,30.06,NNE,22,1.1,2.0,69,0.00,,---,0.00,VWS V14.00,2013-02-12 18:17:00,
2013-02-12 10:22:00,54.0,44.0,30.06,SE,135,1.3,3.8,69,0.00,,---,0.00,VWS V14.00,2013-02-12 18:22:00,
2013-02-12 10:27:00,54.7,44.0,30.06,NNW,338,2.5,2.5,67,0.00,,---,0.00,VWS V14.00,2013-02-12 18:27:00,
2013-02-12 10:32:00,54.7,44.0,30.06,NNE,22,2.0,2.0,67,0.00,,---,0.00,VWS V14.00,2013-02-12 18:32:00,
2013-02-12 10:37:00,55.2,44.5,30.06,NNE,22,3.1,3.6,67,0.00,,---,0.00,VWS V14.00,2013-02-12 18:37:00,
2013-02-12 10:42:00,55.6,44.4,30.06,SSE,158,2.9,2.9,66,0.00,,---,0.00,VWS V14.00,2013-02-12 18:42:00,
2013-02-12 10:47:00,55.8,44.2,30.06,ENE,68,4.3,4.3,65,0.00,,---,0.00,VWS V14.00,2013-02-12 18:47:00,
2013-02-12 10:52:00,55.9,44.4,30.06,NNW,338,2.0,3.1,65,0.00,,---,0.00,VWS V14.00,2013-02-12 18:52:00,
2013-02-12 10:57:00,56.7,44.6,30.06,NE,45,3.8,3.8,64,0.00,,---,0.00,VWS V14.00,2013-02-12 18:57:00,
2013-02-12 11:02:00,57.2,45.2,30.06,NNE,22,3.1,3.1,64,0.00,,---,0.00,VWS V14.00,2013-02-12 19:02:00,
2013-02-12 11:08:00,57.7,45.2,30.06,ENE,68,2.0,2.0,63,0.00,,---,0.00,VWS V14.00,2013-02-12 19:08:00,
2013-02-12 11:13:00,58.1,45.2,30.06,NNW,338,2.0,2.0,62,0.00,,---,0.00,VWS V14.00,2013-02-12 19:13:00,
2013-02-12 11:18:00,58.1,45.2,30.06,NNW,338,3.1,3.1,62,0.00,,---,0.00,VWS V14.00,2013-02-12 19:18:00,
2013-02-12 11:23:00,58.1,45.2,30.06,NNW,338,1.6,1.6,62,0.00,,---,0.00,VWS V14.00,2013-02-12 19:23:00,
2013-02-12 11:29:00,59.9,45.5,30.06,ESE,112,0.9,0.9,59,0.00,,---,0.00,VWS V14.00,2013-02-12 19:29:00,
2013-02-12 11:35:00,60.6,46.2,30.06,NW,315,3.4,3.8,59,0.00,,---,0.00,VWS V14.00,2013-02-12 19:35:00,
2013-02-12 11:40:00,61.3,46.5,30.06,NNE,22,2.5,2.5,58,0.00,,---,0.00,VWS V14.00,2013-02-12 19:40:00,
2013-02-12 11:46:00,61.7,45.9,30.06,NNE,22,2.5,2.5,56,0.00,,---,0.00,VWS V14.00,2013-02-12 19:46:00,
2013-02-12 11:51:00,61.7,45.9,30.06,NNE,22,2.5,2.5,56,0.00,,---,0.00,VWS V14.00,2013-02-12 19:51:00,
2013-02-12 11:56:00,63.1,45.8,30.06,West,270,3.1,3.6,53,0.00,,---,0.00,VWS V14.00,2013-02-12 19:56:00,
2013-02-12 12:01:00,63.7,46.2,30.06,North,0,2.7,2.7,53,0.00,,---,0.00,VWS V14.00,2013-02-12 20:01:00,
2013-02-12 12:06:00,63.7,46.2,30.06,North,0,3.1,3.1,53,0.00,,---,0.00,VWS V14.00,2013-02-12 20:06:00,
2013-02-12 12:11:00,63.7,46.2,30.06,ENE,68,2.2,4.7,53,0.00,,---,0.00,VWS V14.00,2013-02-12 20:11:00,
2013-02-12 12:17:00,65.1,46.0,30.03,North,0,2.7,2.7,50,0.00,,---,0.00,VWS V14.00,2013-02-12 20:17:00,
2013-02-12 12:22:00,65.5,45.8,30.03,NNE,22,1.6,1.6,49,0.00,,---,0.00,VWS V14.00,2013-02-12 20:22:00,
2013-02-12 12:27:00,66.2,46.0,30.03,North,0,2.2,2.2,48,0.00,,---,0.00,VWS V14.00,2013-02-12 20:27:00,
2013-02-12 12:32:00,66.2,46.0,30.03,West,270,1.6,3.6,48,0.00,,---,0.00,VWS V14.00,2013-02-12 20:32:00,
2013-02-12 12:37:00,66.6,45.7,30.03,NNE,22,2.5,2.5,47,0.00,,---,0.00,VWS V14.00,2013-02-12 20:37:00,
2013-02-12 12:42:00,66.9,46.0,30.03,ESE,112,1.3,2.0,47,0.00,,---,0.00,VWS V14.00,2013-02-12 20:42:00,
2013-02-12 12:47:00,66.9,45.5,30.03,NNE,22,1.1,2.5,46,0.00,,---,0.00,VWS V14.00,2013-02-12 20:47:00,
2013-02-12 12:52:00,66.9,45.5,30.03,North,0,1.3,2.7,46,0.00,,---,0.00,VWS V14.00,2013-02-12 20:52:00,
2013-02-12 12:57:00,67.8,46.3,30.03,NNE,22,1.6,1.6,46,0.00,,---,0.00,VWS V14.00,2013-02-12 20:57:00,
2013-02-12 13:02:00,68.4,46.2,30.03,NNE,22,1.3,1.3,45,0.00,,---,0.00,VWS V14.00,2013-02-12 21:02:00,
2013-02-12 13:07:00,68.4,45.6,30.03,NNE,22,1.3,1.3,44,0.00,,---,0.00,VWS V14.00,2013-02-12 21:07:00,
2013-02-12 13:16:00,68.7,46.0,30.03,NNE,22,2.9,2.9,44,0.00,,---,0.00,VWS V14.00,2013-02-12 21:16:00,
2013-02-12 13:22:00,69.3,45.8,30.03,NNE,22,2.9,2.9,43,0.00,,---,0.00,VWS V14.00,2013-02-12 21:22:00,
2013-02-12 13:27:00,69.4,46.0,30.03,North,0,0.0,1.6,43,0.00,,---,0.00,VWS V14.00,2013-02-12 21:27:00,
2013-02-12 13:32:00,70.0,46.5,30.03,NNE,22,2.5,2.5,43,0.00,,---,0.00,VWS V14.00,2013-02-12 21:32:00,
2013-02-12 13:47:00,69.8,43.1,30.03,NNE,22,2.9,2.9,38,0.00,,---,0.00,VWS V14.00,2013-02-12 21:47:00,
2013-02-12 13:52:00,70.2,43.4,30.03,NNE,22,2.5,2.5,38,0.00,,---,0.00,VWS V14.00,2013-02-12 21:52:00,
2013-02-12 13:58:00,70.2,42.0,30.03,NW,315,1.6,2.7,36,0.00,,---,0.00,VWS V14.00,2013-02-12 21:58:00,
2013-02-12 14:04:00,70.2,41.3,30.03,NNE,22,2.9,2.9,35,0.00,,---,0.00,VWS V14.00,2013-02-12 22:04:00,
2013-02-12 14:09:00,70.2,41.3,30.03,North,0,1.6,2.0,35,0.00,,---,0.00,VWS V14.00,2013-02-12 22:09:00,
2013-02-12 14:15:00,70.0,41.1,30.03,North,0,2.9,2.9,35,0.00,,---,0.00,VWS V14.00,2013-02-12 22:15:00,
2013-02-12 14:20:00,70.0,41.1,30.03,NNW,338,1.6,2.5,35,0.00,,---,0.00,VWS V14.00,2013-02-12 22:20:00,
2013-02-12 14:25:00,69.8,40.2,30.03,NNE,22,1.1,2.5,34,0.00,,---,0.00,VWS V14.00,2013-02-12 22:25:00,
2013-02-12 14:30:00,69.8,40.2,30.03,North,0,1.6,2.0,34,0.00,,---,0.00,VWS V14.00,2013-02-12 22:30:00,
2013-02-12 14:35:00,69.8,40.2,30.03,NNE,22,2.0,2.0,34,0.00,,---,0.00,VWS V14.00,2013-02-12 22:35:00,
2013-02-12 14:41:00,69.6,40.8,30.03,NNW,338,3.6,4.3,35,0.00,,---,0.00,VWS V14.00,2013-02-12 22:41:00,
2013-02-12 14:46:00,69.6,40.8,30.03,WSW,248,3.1,3.1,35,0.00,,---,0.00,VWS V14.00,2013-02-12 22:46:00,
2013-02-12 14:52:00,69.4,40.6,30.03,West,270,4.9,4.9,35,0.00,,---,0.00,VWS V14.00,2013-02-12 22:52:00,
2013-02-12 14:57:00,69.1,40.3,30.03,ENE,68,1.3,3.1,35,0.00,,---,0.00,VWS V14.00,2013-02-12 22:57:00,
2013-02-12 15:02:00,69.1,40.3,30.03,NNE,22,2.0,2.0,35,0.00,,---,0.00,VWS V14.00,2013-02-12 23:02:00,
2013-02-12 15:07:00,68.9,39.4,30.03,NNW,338,2.9,2.9,34,0.00,,---,0.00,VWS V14.00,2013-02-12 23:07:00,
2013-02-12 15:12:00,68.7,39.2,30.03,NNE,22,1.1,2.7,34,0.00,,---,0.00,VWS V14.00,2013-02-12 23:12:00,
2013-02-12 15:17:00,68.5,39.8,30.03,North,0,2.2,2.9,35,0.00,,---,0.00,VWS V14.00,2013-02-12 23:17:00,
2013-02-12 15:22:00,68.4,39.7,30.03,North,0,3.8,3.8,35,0.00,,---,0.00,VWS V14.00,2013-02-12 23:22:00,
2013-02-12 15:27:00,68.0,38.6,30.03,NNE,22,1.6,1.6,34,0.00,,---,0.00,VWS V14.00,2013-02-12 23:27:00,
2013-02-12 15:32:00,67.8,39.2,30.03,ENE,68,2.2,4.5,35,0.00,,---,0.00,VWS V14.00,2013-02-12 23:32:00,
2013-02-12 15:37:00,67.8,39.2,30.03,NNW,338,3.4,3.8,35,0.00,,---,0.00,VWS V14.00,2013-02-12 23:37:00,
2013-02-12 15:43:00,67.6,38.3,30.03,NW,315,2.0,4.9,34,0.00,,---,0.00,VWS V14.00,2013-02-12 23:43:00,
2013-02-12 15:48:00,67.5,38.1,30.03,NNW,338,2.2,2.7,34,0.00,,---,0.00,VWS V14.00,2013-02-12 23:48:00,
2013-02-12 15:54:00,67.1,37.8,30.03,NNW,338,2.0,2.0,34,0.00,,---,0.00,VWS V14.00,2013-02-12 23:54:00,
2013-02-12 15:59:00,66.9,37.7,30.03,North,0,3.1,3.1,34,0.00,,---,0.00,VWS V14.00,2013-02-12 23:59:00,
2013-02-12 16:05:00,66.7,38.2,30.03,NNE,22,1.6,2.7,35,0.00,,---,0.00,VWS V14.00,2013-02-13 00:05:00,
2013-02-12 16:11:00,66.4,37.9,30.03,NNW,338,2.2,2.5,35,0.00,,---,0.00,VWS V14.00,2013-02-13 00:11:00,
2013-02-12 16:16:00,66.0,39.0,30.03,NW,315,1.6,1.6,37,0.00,,---,0.00,VWS V14.00,2013-02-13 00:16:00,
2013-02-12 16:21:00,65.5,38.5,30.03,North,0,1.3,1.3,37,0.00,,---,0.00,VWS V14.00,2013-02-13 00:21:00,
2013-02-12 16:26:00,65.3,39.1,30.03,NW,315,0.9,0.9,38,0.00,,---,0.00,VWS V14.00,2013-02-13 00:26:00,
2013-02-12 16:32:00,64.9,38.8,30.03,WNW,292,1.1,2.0,38,0.00,,---,0.00,VWS V14.00,2013-02-13 00:32:00,
2013-02-12 16:37:00,64.6,38.4,30.03,NW,315,0.0,2.5,38,0.00,,---,0.00,VWS V14.00,2013-02-13 00:37:00,
2013-02-12 16:43:00,64.2,38.8,30.03,North,0,4.3,4.3,39,0.00,,---,0.00,VWS V14.00,2013-02-13 00:43:00,
2013-02-12 16:49:00,63.7,38.3,30.03,NW,315,3.1,3.4,39,0.00,,---,0.00,VWS V14.00,2013-02-13 00:49:00,
2013-02-12 16:55:00,62.6,36.7,30.03,NNW,338,3.6,3.8,38,0.00,,---,0.00,VWS V14.00,2013-02-13 00:55:00,
2013-02-12 17:00:00,61.9,36.7,30.03,NW,315,2.2,4.0,39,0.00,,---,0.00,VWS V14.00,2013-02-13 01:00:00,
2013-02-12 17:06:00,61.3,36.8,30.03,NW,315,2.7,3.6,40,0.00,,---,0.00,VWS V14.00,2013-02-13 01:06:00,
2013-02-12 17:11:00,60.6,36.8,30.03,NW,315,2.0,3.1,41,0.00,,---,0.00,VWS V14.00,2013-02-13 01:11:00,
2013-02-12 17:16:00,60.3,37.7,30.03,WNW,292,2.7,3.8,43,0.00,,---,0.00,VWS V14.00,2013-02-13 01:16:00,
2013-02-12 17:21:00,60.1,38.1,30.03,NW,315,2.9,2.9,44,0.00,,---,0.00,VWS V14.00,2013-02-13 01:21:00,
2013-02-12 17:26:00,59.7,38.4,30.03,WNW,292,2.5,2.5,45,0.00,,---,0.00,VWS V14.00,2013-02-13 01:26:00,
2013-02-12 17:31:00,59.4,38.6,30.03,NNW,338,3.4,3.4,46,0.00,,---,0.00,VWS V14.00,2013-02-13 01:31:00,
2013-02-12 17:37:00,59.0,38.3,30.03,WNW,292,2.5,2.5,46,0.00,,---,0.00,VWS V14.00,2013-02-13 01:37:00,
2013-02-12 17:43:00,58.3,38.2,30.03,WNW,292,1.6,3.8,47,0.00,,---,0.00,VWS V14.00,2013-02-13 01:43:00,
2013-02-12 17:48:00,57.9,38.4,30.03,WNW,292,2.5,3.6,48,0.00,,---,0.00,VWS V14.00,2013-02-13 01:48:00,
2013-02-12 17:53:00,57.7,38.2,30.03,NW,315,1.1,1.1,48,0.00,,---,0.00,VWS V14.00,2013-02-13 01:53:00,
2013-02-12 17:58:00,57.4,38.4,30.03,NW,315,2.9,2.9,49,0.00,,---,0.00,VWS V14.00,2013-02-13 01:58:00,
2013-02-12 18:03:00,57.0,38.6,30.03,NW,315,2.7,2.9,50,0.00,,---,0.00,VWS V14.00,2013-02-13 02:03:00,
2013-02-12 18:08:00,56.8,38.9,30.03,WNW,292,2.5,2.7,51,0.00,,---,0.00,VWS V14.00,2013-02-13 02:08:00,
2013-02-12 18:14:00,56.5,38.6,30.03,NW,315,2.0,2.5,51,0.00,,---,0.00,VWS V14.00,2013-02-13 02:14:00,
2013-02-12 18:19:00,56.1,38.8,30.03,NW,315,4.0,4.0,52,0.00,,---,0.00,VWS V14.00,2013-02-13 02:19:00,
2013-02-12 18:24:00,55.6,38.2,30.03,NW,315,2.5,3.8,52,0.00,,---,0.00,VWS V14.00,2013-02-13 02:24:00,
2013-02-12 18:29:00,55.4,38.6,30.03,NNW,338,3.6,3.6,53,0.00,,---,0.00,VWS V14.00,2013-02-13 02:29:00,
2013-02-12 18:35:00,55.2,38.9,30.03,NW,315,2.7,4.0,54,0.00,,---,0.00,VWS V14.00,2013-02-13 02:35:00,
2013-02-12 18:41:00,54.9,38.5,30.03,WNW,292,2.5,2.5,54,0.00,,---,0.00,VWS V14.00,2013-02-13 02:41:00,
2013-02-12 18:47:00,54.5,38.7,30.03,WNW,292,1.6,2.0,55,0.00,,---,0.00,VWS V14.00,2013-02-13 02:47:00,
2013-02-12 18:53:00,54.1,38.3,30.03,NW,315,2.9,3.1,55,0.00,,---,0.00,VWS V14.00,2013-02-13 02:53:00,
2013-02-12 18:58:00,53.6,38.3,30.03,West,270,1.1,1.3,56,0.00,,---,0.00,VWS V14.00,2013-02-13 02:58:00,
2013-02-12 19:04:00,53.1,38.2,30.03,SW,225,1.6,2.0,57,0.00,,---,0.00,VWS V14.00,2013-02-13 03:04:00,
2013-02-12 19:10:00,52.7,37.9,30.03,SW,225,1.6,1.6,57,0.00,,---,0.00,VWS V14.00,2013-02-13 03:10:00,
2013-02-12 19:15:00,52.7,37.9,30.03,NW,315,0.0,1.1,57,0.00,,---,0.00,VWS V14.00,2013-02-13 03:15:00,
2013-02-12 19:21:00,52.5,38.2,30.03,WNW,292,2.5,2.9,58,0.00,,---,0.00,VWS V14.00,2013-02-13 03:21:00,
2013-02-12 19:26:00,52.3,38.0,30.03,NW,315,2.0,2.2,58,0.00,,---,0.00,VWS V14.00,2013-02-13 03:26:00,
2013-02-12 19:31:00,52.0,37.7,30.03,WNW,292,0.0,0.0,58,0.00,,---,0.00,VWS V14.00,2013-02-13 03:31:00,
2013-02-12 19:36:00,51.8,37.9,30.03,SE,135,1.1,1.1,59,0.00,,---,0.00,VWS V14.00,2013-02-13 03:36:00,
2013-02-12 19:42:00,51.4,37.6,30.03,SW,225,0.0,0.0,59,0.00,,---,0.00,VWS V14.00,2013-02-13 03:42:00,
2013-02-12 19:47:00,51.1,37.7,30.03,WSW,248,0.0,0.0,60,0.00,,---,0.00,VWS V14.00,2013-02-13 03:47:00,
2013-02-12 19:52:00,51.1,37.7,30.03,NW,315,1.3,1.3,60,0.00,,---,0.00,VWS V14.00,2013-02-13 03:52:00,
2013-02-12 19:58:00,50.9,37.5,30.03,WNW,292,2.0,2.0,60,0.00,,---,0.00,VWS V14.00,2013-02-13 03:58:00,
2013-02-12 20:03:00,50.9,37.5,30.03,NW,315,2.2,2.2,60,0.00,,---,0.00,VWS V14.00,2013-02-13 04:03:00,
2013-02-12 20:08:00,50.0,37.1,30.03,West,270,0.0,0.0,61,0.00,,---,0.00,VWS V14.00,2013-02-13 04:08:00,
2013-02-12 20:14:00,49.8,37.3,30.03,NNW,338,0.0,0.0,62,0.00,,---,0.00,VWS V14.00,2013-02-13 04:14:00,
2013-02-12 20:20:00,49.6,37.2,30.03,NNW,338,0.0,0.0,62,0.00,,---,0.00,VWS V14.00,2013-02-13 04:20:00,
2013-02-12 20:25:00,49.5,37.0,30.03,SSW,202,0.0,0.0,62,0.00,,---,0.00,VWS V14.00,2013-02-13 04:25:00,
2013-02-12 20:30:00,49.5,37.0,30.03,NW,315,0.0,0.0,62,0.00,,---,0.00,VWS V14.00,2013-02-13 04:30:00,
2013-02-12 20:34:00,49.3,36.8,30.03,NW,315,0.0,0.0,62,0.00,,---,0.00,VWS V14.00,2013-02-13 04:34:00,
2013-02-12 20:40:00,49.3,36.8,30.03,WNW,292,0.0,0.0,62,0.00,,---,0.00,VWS V14.00,2013-02-13 04:40:00,
2013-02-12 20:45:00,49.1,36.7,30.03,South,180,0.0,0.0,62,0.00,,---,0.00,VWS V14.00,2013-02-13 04:45:00,
2013-02-12 20:50:00,48.9,36.9,30.03,WNW,292,0.0,0.0,63,0.00,,---,0.00,VWS V14.00,2013-02-13 04:50:00,
2013-02-12 20:55:00,48.7,36.7,30.03,NNW,338,0.0,0.9,63,0.00,,---,0.00,VWS V14.00,2013-02-13 04:55:00,
2013-02-12 21:00:00,48.7,36.7,30.03,SSW,202,0.0,0.0,63,0.00,,---,0.00,VWS V14.00,2013-02-13 05:00:00,
2013-02-12 21:01:00,48.7,36.7,30.03,West,270,0.0,0.0,63,0.00,,---,0.00,VWS V14.00,2013-02-13 05:01:00,
2013-02-12 21:02:00,48.7,36.7,30.03,NW,315,0.0,0.0,63,0.00,,---,0.00,VWS V14.00,2013-02-13 05:02:00,
2013-02-12 21:04:00,48.7,36.7,30.03,WNW,292,0.0,0.0,63,0.00,,---,0.00,VWS V14.00,2013-02-13 05:04:00,
2013-02-12 21:10:00,48.6,36.5,30.03,WNW,292,1.3,2.2,63,0.00,,---,0.00,VWS V14.00,2013-02-13 05:10:00,
2013-02-12 21:16:00,48.4,36.4,30.03,NW,315,2.5,2.7,63,0.00,,---,0.00,VWS V14.00,2013-02-13 05:16:00,
2013-02-12 21:21:00,48.4,36.4,30.03,WNW,292,2.2,2.9,63,0.00,,---,0.00,VWS V14.00,2013-02-13 05:21:00,
2013-02-12 21:26:00,48.2,36.2,30.03,WNW,292,3.4,3.6,63,0.00,,---,0.00,VWS V14.00,2013-02-13 05:26:00,
2013-02-12 21:31:00,48.2,36.2,30.03,WNW,292,0.0,0.0,63,0.00,,---,0.00,VWS V14.00,2013-02-13 05:31:00,
2013-02-12 21:37:00,48.0,36.4,30.03,NW,315,2.2,2.2,64,0.00,,---,0.00,VWS V14.00,2013-02-13 05:37:00,
2013-02-12 21:42:00,48.0,36.4,30.03,WNW,292,0.0,1.3,64,0.00,,---,0.00,VWS V14.00,2013-02-13 05:42:00,
2013-02-12 21:48:00,47.8,36.3,30.03,WNW,292,1.6,2.2,64,0.00,,---,0.00,VWS V14.00,2013-02-13 05:48:00,
2013-02-12 21:53:00,47.7,36.1,30.03,WNW,292,1.3,2.5,64,0.00,,---,0.00,VWS V14.00,2013-02-13 05:53:00,
2013-02-12 21:58:00,47.7,36.1,30.03,NNW,338,0.0,1.1,64,0.00,,---,0.00,VWS V14.00,2013-02-13 05:58:00,
2013-02-12 22:03:00,47.7,36.1,30.03,NNW,338,0.0,0.0,64,0.00,,---,0.00,VWS V14.00,2013-02-13 06:03:00,
2013-02-12 22:09:00,47.7,36.1,30.03,WSW,248,0.0,0.0,64,0.00,,---,0.00,VWS V14.00,2013-02-13 06:09:00,
2013-02-12 22:14:00,47.5,36.3,30.03,West,270,0.0,0.0,65,0.00,,---,0.00,VWS V14.00,2013-02-13 06:14:00,
2013-02-12 22:19:00,47.5,36.3,30.03,WNW,292,1.3,2.0,65,0.00,,---,0.00,VWS V14.00,2013-02-13 06:19:00,
2013-02-12 22:24:00,47.5,36.3,30.03,WNW,292,0.0,1.6,65,0.00,,---,0.00,VWS V14.00,2013-02-13 06:24:00,
2013-02-12 22:29:00,47.5,36.3,30.03,WNW,292,0.0,0.9,65,0.00,,---,0.00,VWS V14.00,2013-02-13 06:29:00,
2013-02-12 22:34:00,47.5,36.3,30.03,WSW,248,1.6,2.0,65,0.00,,---,0.00,VWS V14.00,2013-02-13 06:34:00,
2013-02-12 22:39:00,47.3,36.2,30.03,NW,315,1.3,1.6,65,0.00,,---,0.00,VWS V14.00,2013-02-13 06:39:00,
2013-02-12 22:45:00,47.5,36.7,30.03,NW,315,0.0,2.5,66,0.00,,---,0.00,VWS V14.00,2013-02-13 06:45:00,
2013-02-12 22:50:00,47.3,36.2,30.06,NW,315,1.1,2.7,65,0.00,,---,0.00,VWS V14.00,2013-02-13 06:50:00,
2013-02-12 22:56:00,47.5,36.7,30.06,NW,315,1.6,1.6,66,0.00,,---,0.00,VWS V14.00,2013-02-13 06:56:00,
2013-02-12 23:02:00,47.3,36.5,30.06,SW,225,1.3,1.6,66,0.00,,---,0.00,VWS V14.00,2013-02-13 07:02:00,
2013-02-12 23:08:00,47.1,36.4,30.06,SSE,158,2.0,2.0,66,0.00,,---,0.00,VWS V14.00,2013-02-13 07:08:00,
2013-02-12 23:13:00,47.3,36.5,30.06,NNW,338,0.0,0.0,66,0.00,,---,0.00,VWS V14.00,2013-02-13 07:13:00,
2013-02-12 23:19:00,47.1,36.4,30.06,South,180,0.0,0.0,66,0.00,,---,0.00,VWS V14.00,2013-02-13 07:19:00,
2013-02-12 23:24:00,46.9,36.6,30.06,NW,315,1.1,1.1,67,0.00,,---,0.00,VWS V14.00,2013-02-13 07:24:00,
2013-02-12 23:29:00,46.9,36.6,30.06,NW,315,0.9,2.0,67,0.00,,---,0.00,VWS V14.00,2013-02-13 07:29:00,
2013-02-12 23:35:00,46.8,36.4,30.06,WNW,292,0.0,0.9,67,0.00,,---,0.00,VWS V14.00,2013-02-13 07:35:00,
2013-02-12 23:40:00,46.6,36.2,30.06,WSW,248,0.0,0.0,67,0.00,,---,0.00,VWS V14.00,2013-02-13 07:40:00,
2013-02-12 23:45:00,46.6,36.2,30.06,SSE,158,0.0,0.0,67,0.00,,---,0.00,VWS V14.00,2013-02-13 07:45:00,
2013-02-12 23:51:00,46.6,36.6,30.06,SSE,158,0.0,0.0,68,0.00,,---,0.00,VWS V14.00,2013-02-13 07:51:00,
2013-02-12 23:56:00,46.8,37.1,30.06,SSE,158,2.0,2.0,69,0.00,,---,0.00,VWS V14.00,2013-02-13 07:56:00,